Location: Brno
(49.2000°N, 16.6330°E)
Time: 08:51:36
(UTC+02:00)

Daily predictions for brighter satellites

Satellite Brightness Start Highest point End
(mag) Time Altitude Azimuth Time Altitude Azimuth Time Altitude Azimuth
Cosmos 44 Rocket 3.8 20:35:07 10° NW 20:39:46 57° WSW 20:44:28 10° SSE
Cosmos 2227 4.5 20:35:25 10° NNW 20:41:03 74° WSW 20:46:41 10° SSE
USA 215 4.2 20:35:13 10° ENE 20:41:30 50° NNW 20:47:46 10° W
CZ-4B DEB 3.8 20:39:33 10° SE 20:41:58 25° ENE 20:44:25 10° NNE
SL-8 R/B 3.7 20:37:41 10° W 20:42:30 83° S 20:47:19 10° E
Cosmos 1633 2.5 20:39:18 10° S 20:42:54 85° E 20:46:35 10° N
YAOGAN 6 2.8 20:41:06 10° SSE 20:44:33 50° ENE 20:47:59 10° N
Okean 2 Rocket 3.3 20:41:47 10° S 20:46:17 83° W 20:50:50 10° N
Helios 1A 3.2 20:46:26 10° SSE 20:50:36 59° ENE 20:54:49 10° N
Abrixas rocket 2.2 20:48:09 10° WSW 20:51:24 62° SSE 20:54:40 10° E
Meteor 1-11 Rocket 4.0 20:46:21 10° SSE 20:51:59 51° E 20:57:30 10° NNE
PEGASUS R/B 4.2 20:49:35 10° NNE 20:52:32 71° ESE 20:57:31 10° SSW
S3M 4.0 20:46:37 10° N 20:52:53 83° E 20:59:13 10° S
SOZ 4.4 20:50:22 10° WNW 20:53:28 72° NNE 20:55:23 12° ESE
Cosmos 2360 4.2 20:49:22 10° SSW 20:55:04 83° ESE 21:00:49 10° NNE
SeaSat 1 2.4 20:51:11 10° NE 20:56:08 67° ESE 21:01:02 10° SSW
Cosmos 1553 Rocket 4.0 20:49:57 10° N 20:56:12 87° W 21:02:18 10° S
USA 186 3.6 20:57:59 10° SSW 21:01:04 33° W 21:04:11 10° NNW
Cosmos 1140 Rocket 4.0 20:57:43 10° NNW 21:02:53 62° WSW 21:08:03 10° S
Cosmos 1607 4.1 21:00:03 10° NW 21:06:31 73° NE 21:12:20 13° SE
Cosmos 2266 Rocket 4.1 21:02:10 10° SSE 21:07:58 52° E 21:13:49 10° NNE
ATLAS 3B R/B 3.1 21:02:27 10° NW 21:09:11 54° NE 21:14:53 13° ESE
Cosmos 614 Rocket 4.5 21:06:33 10° NNW 21:11:34 60° WSW 21:16:36 10° S
Cosmos 839 Rocket 3.9 21:07:03 10° SSW 21:13:13 76° ESE 21:19:37 10° NE
SPOT 5 3.6 21:09:37 14° SE 21:13:21 35° ENE 21:17:36 10° N
Cosmos 2278 Rocket 4.3 21:12:00 10° N 21:15:24 16° NNE 21:18:47 10° ENE
Meteor 1-23 Rocket 4.2 21:10:21 10° N 21:15:56 69° ENE 21:21:25 10° SSE
NOSS 2-3 (D) 4.5 21:12:57 10° S 21:17:14 34° ESE 21:22:10 10° NE
Lacrosse 5 3.1 21:15:09 10° S 21:18:47 20° SE 21:22:26 10° ENE
Cosmos 2263 Rocket 2.2 21:14:19 10° NNW 21:20:03 89° ENE 21:25:06 13° SSE
Cosmos 1741 Rocket 4.1 21:16:22 10° NNW 21:21:37 77° WSW 21:26:44 11° SSE
H-2A R/B 2.7 21:18:22 16° SE 21:21:56 37° ENE 21:26:29 10° N
Cosmos 2322 Rocket 2.2 21:16:42 10° S 21:22:18 61° ESE 21:27:55 10° NE
ARGOS 3.4 21:18:23 14° SE 21:22:51 55° ENE 21:28:05 10° N
Cosmos 1844 Rocket 3.8 21:23:15 10° NNW 21:28:19 32° NE 21:32:11 16° ESE
Resurs 01 Rocket 4.2 21:27:33 10° SW 21:30:50 20° W 21:34:08 10° NW
ERS-1 Rocket 2.9 21:26:13 12° SSE 21:30:52 84° ENE 21:35:55 10° NNW
Okean 1-7 Rocket 3.7 21:27:17 10° N 21:31:44 59° ENE 21:34:52 19° SSE
SL-16 R/B 2.1 21:26:26 10° SSW 21:32:04 71° ESE 21:37:44 10° NNE
Okean 1 Rocket 3.0 21:30:24 10° S 21:34:41 64° E 21:39:02 10° NNE
YAOGAN 11 4.5 21:34:38 22° SE 21:37:12 47° ENE 21:41:22 10° N
SAR-Lupe-4 3.7 21:35:01 16° S 21:37:47 75° WSW 21:41:24 10° NNW
Cosmos 2322 4.5 21:36:50 17° SSE 21:40:10 30° ESE 21:45:03 10° NE
Cosmos 1300 Rocket 3.7 21:37:47 10° SSW 21:42:05 75° W 21:46:26 10° N
Meteor 1-29 2.8 21:38:43 10° NNE 21:42:11 88° ESE 21:45:35 10° SSW
ATLAS 2AS CENTAUR R/B 3.2 21:36:19 10° SSW 21:43:43 51° ESE 21:51:30 10° NE
BREEZE M DEB (TANK) 3.3 21:36:26 10° W 21:44:59 85° N 21:47:11 20° E
Cosmos 2219 Rocket 4.2 21:46:00 11° E 21:46:00 11° E 21:46:50 10° ENE
Helios 1B rocket 2.6 21:42:01 10° N 21:46:08 72° WNW 21:50:12 10° SSW
COSMOS 2428 4.0 21:47:14 20° ESE 21:47:45 20° E 21:51:48 10° NE
Cosmos 1025 Rocket 2.9 21:44:39 10° N 21:48:57 89° WNW 21:51:45 21° S
ERBS 2.6 21:45:32 10° WSW 21:49:00 68° NNW 21:52:28 10° NE
Cosmos 1536 3.3 21:45:49 10° SSW 21:49:51 62° WNW 21:53:54 10° N
Lacrosse 5 rocket 3.7 21:49:09 10° WSW 21:50:25 11° SW 21:51:43 10° SW
NOSS 3-1 (A) 4.4 21:44:47 10° WSW 21:50:39 53° NW 21:57:23 10° NE
NOSS 2-3 (E) 3.9 21:49:25 10° SSW 21:54:09 67° SE 21:59:49 10° NE
Cosmos 220 Rocket 4.3 21:51:39 10° NNW 21:55:53 61° WSW 21:58:28 23° S
Landsat 7 4.3 21:54:20 27° SE 21:56:29 46° ENE 22:01:03 10° N
Meteor 1-5 Rocket 4.1 21:51:50 10° SSW 21:57:11 84° WNW 22:02:31 10° N
Cosmos 2360 Rocket 2.4 21:51:50 10° S 21:57:13 48° ESE 22:02:37 10° NE
Cosmos 1980 Rocket 4.0 21:53:36 10° WSW 21:58:40 34° NW 22:03:46 10° NNE
Molniya-1 4.4 21:57:15 10° NNW 21:59:38 38° NE 22:00:18 33° ENE
MetOp-B 4.4 21:55:19 16° S 21:59:39 68° WSW 22:05:00 10° NNW
CENTAUR R/B 4.2 21:54:21 10° NW 22:00:59 34° NNE 22:08:15 10° E
Cosmos 1110 Rocket 4.0 21:56:55 14° S 22:01:16 57° ESE 22:06:21 10° NNE
Cosmos 1515 3.6 21:57:29 10° N 22:01:20 89° SW 22:02:58 33° S
USA 245 3.9 21:57:57 21° S 22:01:33 83° WSW 22:05:56 10° NNW
Cosmos 2333 Rocket 4.1 22:02:58 12° E 22:02:58 12° E 22:04:11 10° ENE
H-2A R/B 3.5 22:04:41 21° E 22:05:52 24° ENE 22:09:22 10° N
Tiangong 1 3.3 22:06:01 10° SW 22:06:36 13° SW 22:06:36 13° SW
Atlas Centaur 2 4.3 22:06:10 10° SW 22:09:42 14° SSW 22:10:44 14° S
Cosmos 405 3.4 22:10:08 42° E 22:10:10 43° E 22:13:36 10° NNE
Terra 2.3 22:10:09 32° ESE 22:11:49 46° ENE 22:16:23 10° N
BREEZE M DEB (TANK) 4.2 22:08:48 10° SSW 22:11:41 20° S 22:11:41 20° S
Cosmos 1331 Rocket 3.9 22:13:45 18° S 22:17:33 69° ESE 22:22:46 10° NNE
SL-08 RB Rocket 4.1 22:18:57 26° S 22:21:26 58° W 22:25:56 10° NNW
Cosmos 1500 3.1 22:20:34 45° S 22:21:41 82° ESE 22:25:36 10° NNE
Nadezhda 1 Rocket 4.2 22:16:05 10° N 22:22:17 57° ENE 22:25:00 33° SE
SPOT 1/Viking Rocket 3.6 22:20:17 29° S 22:23:00 77° WSW 22:28:15 10° NNW
Cosmos 1437 Rocket 3.9 22:23:53 29° ENE 22:23:53 29° ENE 22:26:55 10° NNE
USA 215 4.1 22:17:41 10° E 22:23:53 47° N 22:30:05 10° WNW
Cosmos 1626 Rocket 4.2 22:20:09 10° N 22:24:11 36° ENE 22:24:44 35° E
Cosmos 1892 Rocket 3.5 22:19:50 10° N 22:24:19 85° W 22:25:50 41° S
SL-8 R/B 3.7 22:20:13 10° W 22:24:58 62° SSW 22:26:12 45° SE
Cosmos 1244 Rocket 4.4 22:21:06 18° S 22:25:52 90° W 22:32:03 10° N
Cosmos 2237 Rocket 4.2 22:28:09 13° E 22:28:09 13° E 22:29:25 10° ENE
Okean 2 4.5 22:23:41 10° NNW 22:27:32 39° W 22:29:41 22° SSW
NOSS 2-3 (C) 4.1 22:22:57 10° SW 22:27:49 77° NW 22:33:43 10° NE
Abrixas rocket 2.2 22:24:45 10° W 22:27:45 68° WSW 22:27:45 68° WSW
EXPRESS MD2 3.7 22:25:09 10° WSW 22:28:40 84° SSE 22:35:54 10° ENE
Cosmos 1066 Rocket 4.1 22:24:29 10° NNW 22:29:55 86° W 22:32:18 35° S
Cosmos 1238 Rocket 4.2 22:26:41 10° NNW 22:33:27 76° W 22:37:18 27° S
GP-B 3.5 22:29:57 10° NNE 22:34:13 43° E 22:34:32 43° E
USA 238 DEB 3.9 22:29:48 10° NW 22:36:51 68° SW 22:40:07 34° SSE
NOSS 3-2 (A) 4.0 22:29:31 10° NW 22:36:53 79° NE 22:40:54 33° SE
USA 238 3.9 22:29:54 10° NW 22:36:57 69° SW 22:40:13 34° SSE
Meteor 1-12 Rocket 4.1 22:36:40 35° S 22:39:09 75° E 22:44:48 10° NNE
Cosmos 1544 Rocket 3.5 22:43:14 52° S 22:44:18 88° ESE 22:48:48 10° N
Cosmos 1503 Rocket 4.1 22:40:34 10° NNW 22:45:57 71° ENE 22:47:23 48° SE
SL-08 R/B 4.5 22:45:38 30° S 22:49:00 89° E 22:55:23 10° N
SPOT 5 4.2 22:48:52 21° SW 22:51:25 33° W 22:55:42 10° NNW
CZ-4 R/B 4.5 22:49:25 10° NNE 22:53:32 38° E 22:53:32 38° E
Cosmos 1842 3.7 22:51:30 10° N 22:55:02 49° ENE 22:55:02 49° ENE
Cosmos 1455 Rocket 3.1 22:56:19 57° SSW 22:57:11 79° W 23:01:41 10° N
ATLAS 3B R/B 3.3 22:53:29 10° NW 22:59:48 44° WSW 23:02:08 32° SSW
Cosmos 2278 Rocket 2.5 22:55:11 10° NNW 23:00:48 57° ENE 23:02:16 44° ESE
Lacrosse 5 1.7 22:56:04 10° SW 23:01:10 84° SE 23:06:16 10° NE
H-2A R/B 3.2 22:59:00 23° SW 23:01:22 34° W 23:05:56 10° NNW
Cosmos 2263 Rocket 4.4 22:59:46 10° WNW 23:03:10 16° W 23:06:34 10° SW
COSMOS 2455 4.2 22:58:10 10° NNW 23:03:31 31° NE 23:06:44 20° E
Cosmos 2237 4.1 23:00:38 28° SSW 23:03:45 87° WNW 23:09:30 10° NNE
Cosmos 1975 3.7 23:03:29 38° WSW 23:04:28 46° WNW 23:08:21 10° N
Cosmos 2322 Rocket 4.1 23:01:46 10° WSW 23:06:45 30° NW 23:11:44 10° NNE
Cosmos 1666 3.0 23:07:59 63° NNE 23:07:59 63° NNE 23:11:19 10° NNE
ARGOS Delta rocket 3.6 23:05:42 10° NNE 23:10:13 75° E 23:10:21 75° ESE
Cosmos 1844 Rocket 3.0 23:06:58 10° NW 23:12:32 55° WSW 23:13:50 45° SSW
NOSS 3-2 (C) 3.9 23:06:24 10° NW 23:13:49 87° SW 23:16:46 44° SE
Cosmos 1743 3.1 23:15:54 59° WNW 23:15:54 59° WNW 23:19:31 10° N
ATLAS CENTAUR R/B 3.3 23:13:48 10° NNW 23:16:27 18° NNE 23:17:17 17° NE
SL-16 R/B 4.3 23:11:59 10° W 23:16:44 26° NW 23:21:29 10° NNE
ALOS 2 4.0 23:18:56 27° ENE 23:18:58 27° ENE 23:22:40 10° N
Cosmos 1745 Rocket 4.1 23:17:01 35° SSW 23:19:44 68° WNW 23:25:53 10° N
IGS 5A 4.4 23:21:50 38° WSW 23:22:05 38° W 23:26:01 10° NNW
Meteor 2-9 Rocket 4.2 23:22:42 61° SE 23:23:27 68° E 23:29:06 10° NNE
Cosmos 2322 4.4 23:18:39 10° SW 23:24:05 52° NW 23:29:40 10° NNE
Meteor 1-4 Rocket 4.2 23:26:37 29° NE 23:26:37 29° NE 23:28:45 10° NNE
Cosmos 2219 Rocket 2.1 23:27:40 66° SE 23:28:03 69° ESE 23:33:42 10° NNE
COSMOS 2428 2.8 23:29:12 40° SW 23:31:22 76° WNW 23:37:09 10° NNE
Timation 1 Rocket 4.2 23:26:14 10° NNW 23:32:16 84° WSW 23:33:14 64° SSE
SL-16 R/B 4.0 23:34:10 18° E 23:34:10 18° E 23:36:42 10° NE
CZ-2C R/B 3.4 23:28:45 10° NNE 23:33:18 37° E 23:33:18 37° E
ATLAS 2AS CENTAUR R/B 3.7 23:27:02 10° WSW 23:34:49 57° NW 23:42:52 10° NE
Cosmos 1602 Rocket 4.3 23:32:39 10° NNW 23:36:47 45° W 23:36:47 45° W
Cosmos 1844 4.3 23:35:00 10° NW 23:40:20 44° WSW 23:41:04 42° SW
Cosmos 1992 Rocket 3.9 23:41:04 69° E 23:41:04 69° E 23:46:03 10° NNE
Cosmos 972 Rocket 4.2 23:41:17 60° ESE 23:41:17 60° ESE 23:47:09 10° NNE
Cosmos 2360 Rocket 3.6 23:36:16 10° WSW 23:41:23 35° NW 23:46:33 10° NNE
H-2A R/B 2.8 23:41:48 44° W 23:41:48 44° W 23:45:51 10° NNW
Cosmos 1953 Rocket 4.1 23:37:46 10° N 23:41:41 52° NE 23:41:41 52° NE
NOSS 3-4 (A) 3.4 23:44:27 60° SE 23:44:36 60° SE 23:51:01 10° NE
NOSS 3-4 (C) 3.5 23:44:35 60° SE 23:44:42 60° SE 23:51:07 10° NE
Cosmos 2333 Rocket 2.0 23:44:56 74° SE 23:45:08 75° ESE 23:50:48 10° NNE
CZ-4C R/B 4.4 23:46:36 39° NNW 23:46:36 39° NNW 23:48:56 10° NNW
Terra 3.4 23:49:02 24° WSW 23:49:46 25° W 23:53:41 10° NW
Cosmos 968 Rocket 3.3 23:47:26 10° NNW 23:52:32 86° WNW 23:52:32 86° WNW
deb Chang Zheng 4 3.9 23:49:35 10° N 23:53:41 64° NW 23:53:41 64° NW
